St-Hubert, Belgium

5:30 PM CET on February 25, 2017 (GMT +0100)
St. Hubert

Weather History for EBSU - January, 2014

Change the Weather History Date:

Sunday, January 19, 2014

  Actual Average Record
Temperature  
Mean Temperature 36 °F -  
Max Temperature 38 °F - - ()
Min Temperature 35 °F - - ()
Degree Days  
Heating Degree Days 28    
Moisture  
Dew Point 35 °F    
Average Humidity 88    
Maximum Humidity 100    
Minimum Humidity 66    
Precipitation  
Precipitation 0.00 in - - ()
Sea Level Pressure  
Sea Level Pressure 29.51 in    
Wind  
Wind Speed 7 mph ()    
Max Wind Speed 13 mph    
Max Gust Speed -    
Visibility 5.4 miles    
Events Fog , Rain    
T = Trace of Precipitation, MM = Missing Value Source: Averaged Metar Reports

Daily Weather History Graph

Daily Weather History Graph

Search for Another Location

Airport or City:

Trip Planner

Search our weather history database for the weather conditions in past years. The results will help you decide how hot, cold, wet, or windy it might be!

Date:

Astronomy

Jan. 19, 2014 Rise Set
Actual Time 8:27 AM CET 5:10 PM CET
Civil Twilight 7:51 AM CET 5:47 PM CET
Nautical Twilight 7:11 AM CET 6:27 PM CET
Astronomical Twilight 6:32 AM CET 7:05 PM CET
Moon 8:58 PM CET (1/19) 9:27 AM CET (1/19)
Length of Visible Light 9h 55m
Length of Day
8h 43m
Waning Gibbous, 91% of the Moon is Illuminated
Jan 19
Waning Gibbous
Jan 24
Last Quarter
Jan 30
New
Feb 6
First Quarter
Feb 15
Full

Hourly Weather History & Observations

Time (CET) Temp. Dew Point Humidity Pressure Visibility Wind Dir Wind Speed Gust Speed Precip Events Conditions
12:00 AM 39 °F 33 °F 71% 29.48 in 14 mi SE 11.2 mph - - Rain Light Drizzle
1:00 AM 39 °F 35 °F 81% 29.47 in 19 mi SSE 6.7 mph - -   Clear
2:00 AM 38 °F 33 °F 74% 29.47 in 14 mi SE 11.2 mph - -  
3:00 AM 40 °F 34 °F 71% 29.46 in 25 mi SE 11.2 mph - - Rain Light Rain
4:00 AM 38 °F 33 °F 75% 29.44 in 14 mi ESE 13.4 mph - - Rain Light Rain
5:00 AM 39 °F 32 °F 66% 29.43 in 25 mi ESE 13.4 mph - -   Clear
6:00 AM 36 °F 32 °F 80% 29.45 in 11 mi SE 8.9 mph - -  
7:00 AM 36 °F 32 °F 79% 29.46 in 9 mi SE 8.9 mph - -   Clear
8:00 AM 36 °F 32 °F 81% 29.46 in 7 mi SE 8.9 mph - -   Overcast
9:00 AM 36 °F 34 °F 88% 29.47 in 6 mi SE 8.9 mph - -   Overcast
10:00 AM 36 °F 34 °F 90% 29.49 in - SSE 6.7 mph - -   Partly Cloudy
11:00 AM 38 °F 36 °F 89% 29.50 in - South 6.7 mph - -   Overcast
12:00 PM 38 °F 37 °F 94% 29.51 in 2 mi SSE 6.7 mph - -   Mist
1:00 PM 38 °F 37 °F 94% 29.52 in 1 mi SSE 6.7 mph - - Fog Fog
2:00 PM 38 °F 38 °F 100% 29.51 in 0 mi SE 4.5 mph - - Fog Fog
3:00 PM 38 °F 37 °F 95% 29.54 in 0 mi SE 4.5 mph - - Fog Fog
4:00 PM 38 °F 37 °F 96% 29.55 in 0 mi SE 4.5 mph - - Fog Fog
5:00 PM 38 °F 37 °F 95% 29.56 in 0 mi SSE 4.5 mph - - Fog Fog
6:00 PM 38 °F 37 °F 96% 29.57 in 0 mi SE 4.5 mph - - Fog Fog
7:00 PM 37 °F 37 °F 99% 29.58 in 0 mi ENE 4.5 mph - - Fog Fog
8:00 PM 37 °F 37 °F 98% 29.60 in 0 mi SW 2.2 mph - - Fog Fog
9:00 PM 36 °F 35 °F 97% 29.60 in - Calm Calm - -   Scattered Clouds
10:00 PM 36 °F 35 °F 96% 29.60 in 3 mi North 2.2 mph - - Fog Fog
11:00 PM 36 °F 35 °F 97% 29.61 in 2 mi NE 4.5 mph - -   Mist